TimeEST,TemperatureF,Dew PointF,Humidity,Sea Level PressureIn,VisibilityMPH,Wind Direction,Wind SpeedMPH,Gust SpeedMPH,PrecipitationIn,Events,Conditions,WindDirDegrees,DateUTC
12:53 AM,62.1,61.0,96,30.26,10.0,Calm,Calm,-,N/A,,Clear,0,2012-12-04 05:53:00
1:45 AM,60.8,59.0,94,30.26,1.8,Calm,Calm,-,N/A,,Clear,0,2012-12-04 06:45:00
1:53 AM,61.0,61.0,100,30.26,3.0,Calm,Calm,-,N/A,,Clear,0,2012-12-04 06:53:00
2:40 AM,59.0,57.2,94,30.26,1.5,Calm,Calm,-,N/A,,Clear,0,2012-12-04 07:40:00
2:46 AM,59.0,57.2,94,30.26,0.8,Calm,Calm,-,N/A,,Mist,0,2012-12-04 07:46:00
2:53 AM,59.0,59.0,100,30.25,1.0,Calm,Calm,-,N/A,,Mist,0,2012-12-04 07:53:00
3:05 AM,59.0,57.2,94,30.25,0.5,Calm,Calm,-,N/A,Fog,Fog,0,2012-12-04 08:05:00
3:53 AM,57.9,57.0,97,30.25,0.5,Calm,Calm,-,N/A,Fog,Fog,0,2012-12-04 08:53:00
4:08 AM,57.2,57.2,100,30.25,1.0,Calm,Calm,-,N/A,,Mist,0,2012-12-04 09:08:00
4:23 AM,57.2,57.2,100,30.25,0.8,Calm,Calm,-,N/A,,Clear,0,2012-12-04 09:23:00
4:44 AM,57.2,55.4,94,30.25,1.0,Calm,Calm,-,N/A,,Clear,0,2012-12-04 09:44:00
5:11 AM,57.2,55.4,94,30.25,2.5,Calm,Calm,-,N/A,,Clear,0,2012-12-04 10:11:00
5:18 AM,57.2,57.2,100,30.25,10.0,Calm,Calm,-,N/A,,Clear,0,2012-12-04 10:18:00
5:37 AM,57.2,57.2,100,30.25,1.8,Calm,Calm,-,N/A,,Clear,0,2012-12-04 10:37:00
5:50 AM,55.4,55.4,100,30.26,3.0,NNE,3.5,-,N/A,,Clear,20,2012-12-04 10:50:00
5:53 AM,55.9,55.9,100,30.26,5.0,NNE,3.5,-,N/A,,Clear,20,2012-12-04 10:53:00
6:53 AM,-9999,-9999,N/A,30.28,10.0,Calm,Calm,-,N/A,,Clear,0,2012-12-04 11:53:00
7:53 AM,-9999,-9999,N/A,30.30,10.0,Calm,Calm,-,N/A,,Clear,0,2012-12-04 12:53:00
8:53 AM,64.0,60.1,87,30.31,10.0,NNE,3.5,-,N/A,,Clear,30,2012-12-04 13:53:00
9:53 AM,72.0,57.9,61,30.32,10.0,ENE,5.8,-,0.01,,Clear,70,2012-12-04 14:53:00
10:53 AM,73.9,57.0,55,30.32,10.0,ESE,6.9,-,N/A,,Clear,120,2012-12-04 15:53:00
11:53 AM,75.9,55.0,48,30.29,10.0,SSE,5.8,-,N/A,,Clear,150,2012-12-04 16:53:00
12:53 PM,78.1,53.1,42,30.27,10.0,ESE,6.9,-,N/A,,Scattered Clouds,110,2012-12-04 17:53:00
1:53 PM,80.1,51.1,36,30.23,10.0,East,9.2,-,N/A,,Clear,90,2012-12-04 18:53:00
2:53 PM,80.1,51.1,36,30.22,10.0,ENE,9.2,-,N/A,,Partly Cloudy,70,2012-12-04 19:53:00
3:53 PM,78.1,50.0,37,30.22,10.0,ESE,8.1,-,N/A,,Clear,120,2012-12-04 20:53:00
4:53 PM,75.9,51.1,42,30.22,10.0,East,5.8,-,N/A,,Clear,80,2012-12-04 21:53:00
5:53 PM,70.0,53.1,55,30.23,10.0,ENE,5.8,-,N/A,,Clear,70,2012-12-04 22:53:00
6:53 PM,68.0,55.9,65,30.24,10.0,East,5.8,-,N/A,,Clear,80,2012-12-04 23:53:00
7:53 PM,66.9,55.9,68,30.25,10.0,ENE,6.9,-,N/A,,Clear,70,2012-12-05 00:53:00
8:53 PM,66.0,57.0,73,30.24,10.0,ENE,5.8,-,N/A,,Clear,70,2012-12-05 01:53:00
9:53 PM,64.0,57.0,78,30.24,10.0,ENE,5.8,-,N/A,,Clear,70,2012-12-05 02:53:00
10:53 PM,63.0,57.0,81,30.23,10.0,ENE,5.8,-,N/A,,Clear,70,2012-12-05 03:53:00
11:53 PM,61.0,57.0,87,30.23,10.0,Calm,Calm,-,N/A,,Clear,0,2012-12-05 04:53:00